TimeEST,TemperatureF,Dew PointF,Humidity,Sea Level PressureIn,VisibilityMPH,Wind Direction,Wind SpeedMPH,Gust SpeedMPH,PrecipitationIn,Events,Conditions,WindDirDegrees,DateUTC
12:54 AM,42.1,35.1,76,30.21,10.0,NE,8.1,-,N/A,,Overcast,50,2012-12-26 05:54:00
1:54 AM,41.0,35.6,81,30.15,9.0,ENE,9.2,-,N/A,,Overcast,70,2012-12-26 06:54:00
2:54 AM,41.0,34.0,76,30.17,9.0,ENE,10.4,18.4,N/A,,Overcast,70,2012-12-26 07:54:00
3:54 AM,39.9,34.0,79,30.15,9.0,ENE,11.5,16.1,0.00,Rain,Light Rain,60,2012-12-26 08:54:00
4:54 AM,39.0,34.0,82,30.13,8.0,ENE,8.1,-,0.00,Rain,Light Rain,60,2012-12-26 09:54:00
5:54 AM,37.9,35.1,89,30.11,4.0,NE,11.5,-,0.04,Rain,Light Rain,50,2012-12-26 10:54:00
6:34 AM,37.4,35.6,93,30.07,5.0,ENE,10.4,-,0.01,Rain,Light Rain,60,2012-12-26 11:34:00
6:54 AM,37.0,35.1,93,30.08,5.0,ENE,10.4,19.6,0.01,Rain,Light Rain,60,2012-12-26 11:54:00
7:16 AM,37.4,33.8,87,30.06,4.0,ENE,10.4,-,0.01,Rain,Light Rain,60,2012-12-26 12:16:00
7:25 AM,37.4,35.6,93,30.05,1.5,NE,11.5,-,0.01,Rain,Light Rain,50,2012-12-26 12:25:00
7:54 AM,37.0,35.1,93,30.04,1.5,NE,9.2,18.4,0.04,Rain,Light Rain,50,2012-12-26 12:54:00
8:54 AM,37.9,36.0,93,29.98,1.5,NE,12.7,-,0.06,Rain,Rain,50,2012-12-26 13:54:00
9:54 AM,39.0,37.0,93,29.93,1.5,ENE,15.0,-,0.13,Rain,Rain,70,2012-12-26 14:54:00
10:54 AM,41.0,39.0,93,29.85,1.5,ENE,15.0,21.9,0.17,Rain,Rain,60,2012-12-26 15:54:00
11:54 AM,42.1,39.9,92,29.80,1.5,ENE,10.4,-,0.27,Rain,Rain,60,2012-12-26 16:54:00
12:54 PM,42.1,41.0,96,29.70,1.5,ENE,12.7,-,0.32,Rain,Heavy Rain,60,2012-12-26 17:54:00
1:39 PM,44.6,42.8,93,29.61,5.0,ENE,12.7,20.7,0.07,,Overcast,70,2012-12-26 18:39:00
1:54 PM,45.0,43.0,93,29.59,5.0,ENE,13.8,21.9,0.07,,Overcast,60,2012-12-26 18:54:00
2:47 PM,46.4,44.6,93,29.48,1.8,East,15.0,23.0,0.09,Rain,Heavy Rain,80,2012-12-26 19:47:00
2:54 PM,46.9,46.0,97,29.50,2.5,ENE,12.7,23.0,0.13,Rain,Light Rain,60,2012-12-26 19:54:00
3:54 PM,46.9,45.0,93,29.45,7.0,NNE,13.8,-,0.08,,Overcast,20,2012-12-26 20:54:00
4:54 PM,45.0,44.1,97,29.44,9.0,NNW,10.4,-,N/A,,Overcast,340,2012-12-26 21:54:00
5:54 PM,44.1,43.0,96,29.46,4.0,WNW,12.7,-,N/A,,Overcast,300,2012-12-26 22:54:00
6:54 PM,43.0,42.1,97,29.45,6.0,WNW,11.5,-,N/A,,Overcast,300,2012-12-26 23:54:00
7:54 PM,39.9,39.0,97,29.44,5.0,WNW,13.8,-,N/A,,Overcast,290,2012-12-27 00:54:00
8:54 PM,37.9,37.0,97,29.46,7.0,West,9.2,-,N/A,,Overcast,280,2012-12-27 01:54:00
9:54 PM,37.9,37.0,97,29.49,5.0,West,10.4,-,N/A,,Overcast,280,2012-12-27 02:54:00
10:52 PM,37.4,35.6,93,29.49,7.0,West,13.8,-,N/A,,Overcast,280,2012-12-27 03:52:00
10:54 PM,37.9,36.0,93,29.51,7.0,West,12.7,-,N/A,,Overcast,280,2012-12-27 03:54:00
11:54 PM,39.9,37.9,93,29.50,10.0,WSW,9.2,-,N/A,,Overcast,250,2012-12-27 04:54:00